Location: Frankfurt am Main
(50.1109°N, 8.6821°E)
Time: 17:07:18
(UTC+01:00)

ISS - Pass Details

Date: 21 January 2020
Orbit: 415 x 422 km, 51.6° (Epoch: 26 February)

Event Time Altitude Azimuth Distance (km) Brightness Sun altitude
Rises 19:04:49 0° 213° (SSW) 2,368 0.7 -19.6°
Reaches altitude 10° 19:07:10 10° 199° (SSW) 1,506 -0.6 -20.0°
Enters shadow 19:08:55 20° 172° (S) 1,032 -1.8 -20.2°
